Wichita Jabara, KS

1:46 PM CST on November 24, 2017 (GMT -0600)
Col Jabara

Weather History for KAAO - December, 2012

Change the Weather History Date:

Tuesday, December 4, 2012

  Actual Average (KIAB) Record (KIAB)
Temperature  
Mean Temperature 48 °F -  
Max Temperature 62 °F 47 °F 68 °F (2001)
Min Temperature 35 °F 29 °F 15 °F (2005)
Degree Days  
Heating Degree Days 16    
Moisture  
Dew Point 26 °F    
Average Humidity 48    
Maximum Humidity 79    
Minimum Humidity 20    
Precipitation  
Precipitation 0.00 in - - ()
Sea Level Pressure  
Sea Level Pressure 30.27 in    
Wind  
Wind Speed 8 mph (NW)    
Max Wind Speed 10 mph    
Max Gust Speed -    
Visibility 10 miles    
Events      
Averages and records for this station are not official NWS values.
T = Trace of Precipitation, MM = Missing Value Source: NWS Daily Summary

Daily Weather History Graph

Daily Weather History Graph

Search for Another Location

Airport or City:

Trip Planner

Search our weather history database for the weather conditions in past years. The results will help you decide how hot, cold, wet, or windy it might be!

Date:

Astronomy

Dec. 04, 2012 Rise Set
Actual Time 7:28 AM CST 5:09 PM CST
Civil Twilight 6:59 AM CST 5:38 PM CST
Nautical Twilight 6:27 AM CST 6:11 PM CST
Astronomical Twilight 5:55 AM CST 6:43 PM CST
Moon 10:54 PM CST (12/4) 11:27 AM CST (12/4)
Length of Visible Light 10h 39m
Length of Day
9h 41m
Waning Gibbous, 69% of the Moon is Illuminated
Dec 4
Waning Gibbous
Dec 6
Last Quarter
Dec 13
New
Dec 19
First Quarter
Dec 28
Full

Hourly Weather History & Observations

Time (CST) Temp. Windchill Dew Point Humidity Pressure Visibility Wind Dir Wind Speed Gust Speed Precip Events Conditions
12:54 AM 48.0 °F - 35.1 °F 61% 30.09 in 10.0 mi North 9.2 mph - N/A   Clear
1:54 AM 45.0 °F 39.7 °F 34.0 °F 65% 30.12 in 10.0 mi North 10.4 mph - N/A   Clear
2:54 AM 42.1 °F 36.1 °F 33.1 °F 70% 30.16 in 10.0 mi North 10.4 mph - N/A   Clear
3:54 AM 37.0 °F 30.4 °F 30.9 °F 79% 30.18 in 10.0 mi North 9.2 mph - N/A   Clear
4:54 AM 37.9 °F 32.1 °F 30.0 °F 73% 30.20 in 10.0 mi North 8.1 mph - N/A   Clear
5:54 AM 36.0 °F 29.0 °F 28.0 °F 73% 30.23 in 10.0 mi North 9.2 mph - N/A   Clear
6:54 AM 35.1 °F 28.6 °F 27.0 °F 72% 30.26 in 10.0 mi NNW 8.1 mph - N/A   Clear
7:54 AM 36.0 °F 31.1 °F 26.1 °F 67% 30.30 in 10.0 mi NNW 5.8 mph - N/A   Clear
8:54 AM 42.1 °F 38.4 °F 28.0 °F 58% 30.30 in 10.0 mi NNW 5.8 mph - N/A   Clear
9:54 AM 51.1 °F - 28.0 °F 41% 30.32 in 10.0 mi NNE 5.8 mph - N/A   Clear
10:54 AM 57.9 °F - 25.0 °F 28% 30.32 in 10.0 mi NNE 8.1 mph - N/A   Clear
12:54 PM 61.0 °F - 21.0 °F 21% 30.30 in 10.0 mi NNW 8.1 mph - N/A   Clear
1:54 PM 62.1 °F - 19.9 °F 20% 30.28 in 10.0 mi Variable 4.6 mph - N/A   Clear
2:54 PM 62.1 °F - 24.1 °F 23% 30.28 in 10.0 mi West 6.9 mph - N/A   Clear
3:54 PM 60.1 °F - 23.0 °F 24% 30.29 in 10.0 mi WNW 6.9 mph - N/A   Clear
4:54 PM 55.0 °F - 21.9 °F 28% 30.30 in 10.0 mi West 4.6 mph - N/A   Clear
5:54 PM 54.0 °F - 21.0 °F 28% 30.30 in 10.0 mi SW 3.5 mph - N/A   Clear
6:54 PM 45.0 °F 43.5 °F 21.9 °F 40% 30.32 in 10.0 mi SSE 3.5 mph - N/A   Clear
7:54 PM 48.9 °F - 21.9 °F 35% 30.31 in 10.0 mi SSW 4.6 mph - N/A   Clear
8:54 PM 43.0 °F 40.3 °F 23.0 °F 45% 30.32 in 10.0 mi SSW 4.6 mph - N/A   Clear
9:54 PM 46.0 °F 42.5 °F 24.1 °F 42% 30.31 in 10.0 mi SW 6.9 mph - N/A   Clear
10:54 PM 43.0 °F 40.3 °F 24.1 °F 47% 30.30 in 10.0 mi SSW 4.6 mph - N/A   Clear
11:54 PM 39.0 °F - 24.1 °F 55% 30.33 in 10.0 mi Calm Calm - N/A   Clear